Location: Lac de la Montange Noire
(46.1952°N, 74.2701°W)
Time: 20:48:55
(UTC-04:00)

Iridium 42 - Visible Passes

Search period start: 22 October 2017 00:00
Search period end: 01 November 2017 00:00
Orbit: 775 x 778 km, 86.4° (Epoch: 22 October)

Date Brightness Start Highest point End Pass type
(mag) Time Alt. Az. Time Alt. Az. Time Alt. Az.
22 Oct 8.8 06:40:39 10° ENE 06:41:33 10° ENE 06:42:25 10° ENE visible
22 Oct 8.0 21:27:01 13° N 21:27:01 13° N 21:27:37 10° N visible
23 Oct 7.8 20:53:05 14° N 20:53:05 14° N 20:53:52 10° N visible
24 Oct 7.6 20:19:06 14° NNE 20:19:06 14° NNE 20:19:52 10° NNE visible
24 Oct 8.3 21:59:32 12° NNW 21:59:32 12° NNW 22:00:03 10° NNW visible
25 Oct 8.4 06:38:12 10° NE 06:41:03 15° ENE 06:43:53 10° ESE visible
25 Oct 7.6 19:45:04 12° NNE 19:45:04 12° NNE 19:45:35 10° NNE visible
25 Oct 7.9 21:25:29 17° NNW 21:25:29 17° NNW 21:26:43 10° N visible
26 Oct 7.4 20:51:21 21° N 20:51:21 21° N 20:53:05 10° N visible
27 Oct 7.0 20:17:06 25° NNE 20:17:06 25° NNE 20:19:13 10° N visible
27 Oct 8.2 21:57:30 14° NW 21:57:30 14° NW 21:58:46 10° NNW visible
28 Oct 8.2 06:36:44 10° NNE 06:40:31 20° ENE 06:44:17 10° ESE visible
28 Oct 6.7 19:42:36 25° NE 19:42:36 25° NE 19:45:08 10° NNE visible
28 Oct 7.5 21:22:59 24° NW 21:22:59 24° NW 21:25:44 10° NNW visible
29 Oct 8.7 06:04:39 10° NE 06:06:16 11° ENE 06:07:53 10° E visible
29 Oct 6.7 19:07:28 21° ENE 19:07:28 21° ENE 19:10:40 10° NNE visible
29 Oct 6.3 20:42:03 10° SSW 20:47:46 49° WNW 20:52:15 10° N visible
30 Oct 7.2 18:31:34 10° E 18:33:25 12° ENE 18:35:17 10° NE visible
30 Oct 5.4 20:08:03 10° S 20:13:16 88° E 20:18:31 10° N visible
30 Oct 8.4 21:52:22 10° W 21:54:45 13° WNW 21:57:07 10° NW visible
31 Oct 7.8 06:35:32 10° NNE 06:39:56 27° ENE 06:44:19 10° SE visible
31 Oct 5.6 19:34:31 10° SSE 19:39:31 50° E 19:44:33 10° NNE visible
31 Oct 7.7 21:16:29 10° SW 21:20:32 22° WNW 21:24:36 10° NNW visible
